Weather in Salem

United States     44°57′09″N   123°01′46″W
temp.,
°C
wind,
m/s
gust,
m/s
humid.,
%
clouds,
%
prec.,
mm/h
press.,
hPa
HPBL,
m
25 may, wed
wed2523:00+14ssw2368100 0.0 101757
02:00+12ssw2368100 0.0 101792
05:00+12ssw237495 0.0 101784
08:00+13ssw227993 0.0 1018223
11:00+18sw236996 0.0 1017974
14:00+22wnw1256100 0.0 10161315
17:00+22ne1156100 0.0 10141181
20:00+17nnw117798 0.0 101316
26 may, thu
thu2623:00+13n1188100 0.0 101311
02:00+12n1193100 0.0 101315
05:00+11n1193100 0.0 101210
08:00+14n1280100 0.0 1012185
11:00+18n1167100 0.0 1011495
14:00+21wnw2359100 0.1 10111116
17:00+15sw1195100 1.6 101254
20:00+15ssw25936 1.1 1012121
27 may, fri
fri2723:00+12ssw239543 1.1 101349
02:00+12ssw2296100 0.3 101466
05:00+11s2598100 3.1 1014145
08:00+12s2496100 0.0 1015227
11:00+15sw3472100 0.1 1015963
14:00+18ssw3657100 0.5 10151610
17:00+15wsw1281100 2.0 1013151
20:00+13sse1183100 0.7 101311
28 may, sat
sat2823:00+11wsw1187100 1.0 101111
02:00+10sse2496100 1.1 1009172
05:00+10ne2598100 6.4 1006203
08:00+10nne3699100 5.3 1003261
11:00+10ne2598100 13.0 1001234
14:00+11w3798100 4.8 1001671
17:00+10wsw51094100 7.1 1008857
20:00+9wsw41093100 0.7 1011635
29 may, sun
sun2923:00+8ssw4895100 0.8 1012249
02:00+8ssw4997100 0.4 1012392
05:00+8ssw2597100 1.5 1012149
08:00+10sw359184 0.6 1013577
11:00+12wsw348292 2.0 1013921
14:00+15wnw356891 1.8 10131335
17:00+15wnw566720 3.1 10141366
20:00+11wnw59768 0.1 1016532